ONEWEB-0194 (48237 NORAD) Tracking and Keplerian Element Data

This shows tracking and keplerian element data for the satellite.

Feedback or suggestion? Click here.




ElementValue
Catalog48237
NameONEWEB-0194
Epoch Orbit176
Epoch Day170.58334491
Epoch Year2021
RAAN295.0179
Inclination87.6014
Eccentricity0.0010029
Argument of Perigee84.2095
Mean Anonmoly243.4978
Mean Motion14.56979889
Decay Rate-0.00933014
L11 48237U 21031AD 21170.58334491 -.00933014 00000-0 -22123+0 0 9990
L22 48237 87.6014 295.0179 0010029 84.2095 243.4978 14.56979889 1762

Live tracking and technical data element details for ONEWEB-0194 (NORAD 48237). ONEWEB-0194 can be tracked NOW for your location showing map with azimuth and elevation plus other details from your city location.

Track the satellite on the map from your city or location and see movement details for azimuth, elevation, latitude, longitude, range, height, and movement on the map or in text.







IsCatalogInMostPopularTable: catalog: 48237, numindb: 24
Update: records affected: 1



GetName: 48237 ONEWEB-0194

Hit Count: updated at: Mon, 21 Jun 2021 03:08:34 GMT